Theta_e
282 281 282 282 282 281 281 281 282 282 282 282 282 281 281 281 281 281 281 281 281 281 281 281 281 281 281 281 281 280 280 280 280 280 280 280 280 280 281 281 281 281 281 281 282 282 282 283 283 284 285 284 285 285 285 285 284 284 283 282 282 281 281 280 280 281 284 284 284 284 284 282 283 282 283 283 283 284 286 285 285 285 285 286 287
281 282 282 282 281 281 280 281 281 281 281 281 281 281 280 280 280 280 280 280 280 280 280 280 281 280 280 280 280 280 280 280 280 280 279 279 279 280 280 280 279 279 280 280 281 282 282 281 282 282 284 284 284 284 285 285 285 284 284 283 283 283 282 281 281 281 281 283 284 284 282 281 283 281 283 283 284 284 283 283 284 284 285 285 285
280 280 280 280 279 279 280 279 279 279 279 280 280 280 280 280 280 279 279 279 279 279 279 279 279 279 279 279 279 279 279 279 279 279 279 278 278 278 279 278 278 278 278 279 279 280 280 280 280 281 283 282 283 283 284 284 285 284 284 284 284 284 284 283 282 281 281 282 283 284 284 282 282 284 282 284 284 284 283 283 283 284 285 285 284
280 280 280 279 279 279 279 279 279 279 279 279 279 279 279 279 280 279 279 279 279 279 279 279 278 278 278 278 278 278 278 278 278 278 278 278 278 278 278 278 278 278 278 278 278 279 279 279 280 280 281 281 281 282 283 283 284 284 284 284 284 284 284 284 283 282 282 281 282 283 284 283 283 281 282 283 282 282 283 283 282 283 283 284 284
277 278 277 277 277 277 277 277 277 277 277 277 277 278 278 278 278 278 278 277 277 277 277 278 277 277 277 277 276 277 277 277 277 277 278 278 278 278 278 278 278 278 278 278 280 278 278 278 279 279 280 280 280 281 281 282 283 283 283 284 284 284 284 284 284 283 282 281 282 283 283 283 283 282 281 281 282 281 282 282 282 282 282 283 284
277 277 277 277 276 276 276 276 276 276 276 276 276 276 276 276 275 275 276 275 275 275 275 275 276 275 275 275 276 276 276 276 276 276 276 277 277 277 277 277 277 278 278 278 278 278 278 278 278 279 279 279 279 280 281 281 281 281 282 283 283 284 283 283 284 283 283 282 282 282 282 281 282 283 282 281 281 282 282 282 282 282 282 281 282
276 276 276 275 275 275 275 275 275 275 275 275 275 275 274 273 273 273 273 273 272 273 273 273 273 274 274 274 274 274 274 275 275 275 275 276 276 276 276 277 277 277 278 278 278 278 278 278 278 279 278 279 279 280 280 280 281 281 281 281 282 282 282 282 283 283 283 282 282 282 281 282 282 282 283 282 282 282 282 282 281 282 282 282 282
275 275 275 274 274 273 274 274 274 274 274 274 274 273 272 271 271 271 271 271 271 271 271 271 271 272 272 272 272 272 272 272 272 273 273 274 274 275 275 275 276 276 277 277 278 278 278 278 278 279 279 279 279 279 280 280 280 280 281 281 281 281 281 282 282 282 282 282 281 281 281 281 280 280 281 280 280 281 281 281 281 282 282 282 282
273 273 272 272 272 272 273 273 273 272 272 271 271 270 270 270 269 269 269 269 270 269 270 270 269 269 270 270 269 270 270 270 271 271 272 273 274 273 274 274 274 274 274 275 276 277 277 278 278 278 279 281 283 283 283 283 281 280 281 281 281 281 280 281 281 281 281 281 280 281 281 281 281 281 279 278 279 281 283 281 281 282 283 282 282
271 271 271 271 271 272 272 271 271 270 270 269 269 268 268 268 267 267 267 267 267 268 268 267 267 267 267 267 267 267 267 268 270 274 275 273 272 272 272 272 273 273 273 273 274 275 276 276 277 279 280 281 281 282 283 283 283 283 282 282 281 281 280 280 280 280 280 279 279 280 279 279 280 281 281 281 281 281 281 280 280 282 282 281 282
271 270 270 271 271 271 270 270 269 268 268 267 266 266 266 265 265 265 265 265 265 265 265 265 265 265 265 265 265 265 266 267 271 273 274 275 273 272 272 272 273 273 273 273 272 273 274 275 276 277 278 278 278 280 281 282 283 283 284 284 284 282 281 280 280 280 279 279 280 280 279 279 280 281 281 282 281 280 280 281 281 281 281 280 280
269 269 270 270 270 269 268 267 266 266 265 265 264 264 264 263 263 263 263 263 264 264 264 264 264 264 264 264 264 264 264 267 271 272 273 274 275 272 272 271 271 271 272 272 272 273 273 274 274 275 275 276 276 276 278 280 281 282 282 283 283 284 285 282 281 280 280 280 279 279 279 279 280 281 280 281 280 279 280 281 280 280 280 280 280
268 268 268 268 267 267 266 265 264 264 264 263 263 263 262 262 262 262 261 262 263 262 263 263 262 263 263 262 262 263 263 267 270 271 273 274 274 273 271 270 270 270 270 270 270 271 271 271 272 273 274 276 276 276 276 276 279 280 281 281 282 283 284 285 285 283 282 281 280 280 281 280 280 280 281 281 281 280 279 279 279 280 280 280 281
267 267 266 266 265 265 265 263 263 263 262 262 262 261 261 261 261 261 262 262 262 261 261 261 262 261 262 262 261 262 262 265 269 271 272 273 273 273 270 270 270 270 269 269 269 269 269 269 269 269 270 271 271 272 272 273 274 274 275 275 276 277 280 282 282 283 283 281 280 279 281 283 281 282 283 283 282 281 280 280 280 280 280 280 282
265 266 264 264 264 263 263 262 262 262 261 261 261 260 260 260 260 261 261 261 260 260 260 260 260 260 260 261 260 261 261 267 269 271 271 272 273 273 270 269 268 268 268 269 269 269 269 269 269 269 269 270 270 272 272 272 273 273 274 275 276 276 277 277 277 278 279 280 280 280 281 282 282 283 284 284 283 283 283 282 282 281 282 282 282
265 264 263 262 262 263 262 261 261 261 261 260 259 260 260 259 259 260 260 260 260 260 260 260 259 259 260 260 260 259 261 267 268 269 271 272 273 269 268 267 267 267 267 268 268 269 269 269 269 269 269 270 272 275 275 274 273 272 272 273 274 275 276 279 281 282 281 281 280 280 280 281 284 283 284 284 284 284 284 283 281 280 280 279 279
263 263 262 262 262 262 262 261 260 260 260 259 259 259 259 259 259 259 259 259 259 259 259 259 259 259 259 259 259 259 259 263 267 269 270 271 270 267 267 266 266 266 267 267 268 268 268 269 269 269 269 269 272 275 276 276 273 273 273 272 273 273 274 276 279 281 282 283 284 285 286 287 287 288 288 288 286 286 283 280 280 279 278 277 278
263 261 262 261 262 262 261 259 259 259 258 258 258 259 259 259 258 259 258 258 258 258 258 258 258 259 258 258 259 258 259 262 267 269 270 270 270 267 266 266 266 266 266 267 268 268 268 270 270 269 268 268 272 275 276 274 272 272 272 272 272 273 274 275 276 278 281 282 283 283 284 284 285 286 287 288 288 287 284 281 281 281 279 278 278
262 261 261 262 261 260 259 259 259 258 258 258 258 258 258 258 258 258 258 258 258 258 258 258 258 258 258 258 260 260 259 261 266 268 269 270 269 267 267 266 266 266 266 266 267 267 267 269 271 271 271 271 275 275 276 274 272 272 272 272 271 271 272 274 274 275 276 276 277 279 280 282 281 281 281 284 285 285 284 284 284 282 280 280 279
262 261 261 261 260 259 258 258 258 257 258 258 257 257 258 257 258 258 257 257 257 257 257 257 257 257 258 258 258 259 259 259 261 267 269 270 271 268 267 266 265 265 266 266 266 267 267 268 269 272 274 274 275 275 275 276 272 272 271 270 270 270 274 273 274 275 275 275 275 276 277 278 280 281 281 281 282 282 283 283 283 283 282 281 280
261 260 261 259 258 258 257 256 257 257 257 257 257 257 257 257 257 257 256 257 256 256 256 256 256 257 257 258 258 258 259 259 260 267 269 270 271 270 267 267 267 266 266 266 266 266 267 268 268 272 274 274 275 275 275 276 276 273 272 271 271 273 275 273 274 276 274 274 275 275 275 276 277 278 279 281 281 281 282 282 283 283 283 282 281
260 258 258 257 257 256 256 256 256 256 256 256 256 256 257 257 256 256 256 256 255 255 255 256 256 256 257 257 258 258 260 262 261 265 268 270 271 272 268 268 269 268 267 267 268 268 268 268 268 271 274 274 275 275 276 276 276 274 273 276 278 278 275 274 274 273 273 274 274 275 275 275 275 276 277 278 280 281 281 281 282 282 283 284 283
259 258 256 255 255 255 255 255 255 255 255 256 255 255 256 256 255 255 255 255 255 255 255 256 256 256 256 257 258 258 259 259 264 263 268 270 271 272 272 271 273 271 269 268 268 268 269 269 269 273 274 275 275 276 276 276 276 274 277 277 277 278 276 274 273 273 272 273 273 273 273 274 275 275 276 277 279 280 281 281 282 282 282 283 284
256 254 254 254 254 254 254 254 255 254 255 255 254 254 255 255 255 255 255 255 255 255 255 255 255 255 255 256 257 258 259 260 263 267 266 270 271 272 273 274 274 271 270 269 270 270 269 269 269 273 274 275 276 277 277 277 275 276 277 277 276 276 273 272 271 271 271 271 271 271 271 273 274 275 276 278 279 279 279 280 281 282 282 282 283
253 252 252 252 252 253 253 253 253 254 254 254 254 255 255 254 254 254 254 255 254 254 254 255 254 255 255 255 257 258 260 261 261 264 268 270 271 272 273 274 274 274 271 270 270 270 272 274 275 276 276 276 277 276 275 274 275 275 276 276 275 273 272 272 271 271 270 270 270 270 271 272 273 274 276 277 278 279 279 280 281 282 282 282 282
252 253 252 252 253 253 253 253 254 254 254 254 254 254 254 254 254 254 254 254 254 254 254 254 254 255 255 257 258 260 261 262 263 264 265 267 268 270 272 273 273 274 273 272 274 275 275 276 276 276 275 274 271 270 270 270 274 275 276 275 272 271 270 269 269 268 268 268 269 269 270 271 272 273 275 275 276 276 278 279 280 280 280 280 280
252 252 252 252 253 252 253 253 254 254 253 254 254 254 255 254 254 254 254 254 254 254 255 255 256 257 257 259 260 262 262 263 264 265 266 266 267 267 268 268 271 272 270 269 270 269 270 271 271 273 274 275 275 275 274 274 272 271 270 270 269 269 269 269 268 268 268 268 269 269 270 271 273 273 273 274 274 275 277 278 278 279 279 280 279
252 251 252 252 253 252 253 255 255 254 254 254 254 254 254 254 254 254 254 255 255 256 256 257 258 259 259 260 261 260 261 263 265 266 266 267 268 269 269 269 269 268 267 267 268 268 268 271 271 270 269 269 269 268 268 268 268 269 269 269 270 270 271 272 273 271 270 271 271 271 272 272 271 272 273 273 274 275 277 278 278 278 279 279 278
252 250 251 252 252 253 253 253 253 253 253 254 254 254 254 254 255 256 258 258 258 257 258 258 260 261 262 262 263 263 265 265 266 270 270 273 271 270 270 270 271 271 272 275 272 271 268 267 266 266 266 266 266 267 267 267 268 268 269 269 270 270 270 269 269 269 269 269 269 270 270 271 271 272 273 273 274 275 277 278 279 279 279 279 278
250 250 251 251 252 252 252 252 252 253 252 253 254 254 258 262 262 260 260 264 267 269 269 265 266 266 266 267 267 265 265 266 271 273 273 274 274 274 274 275 275 274 275 276 274 270 268 267 266 265 265 264 264 264 264 265 265 266 267 270 269 269 269 270 269 269 270 270 270 270 270 271 271 271 272 273 274 275 277 278 278 279 278 278 277
250 251 251 251 253 253 252 252 253 253 253 253 253 254 254 256 262 264 265 265 267 268 269 269 270 270 268 266 267 270 271 272 272 272 273 273 273 274 275 275 275 275 275 272 270 267 265 264 263 263 263 263 263 263 264 265 266 266 267 267 268 268 269 269 269 270 270 270 270 271 271 271 271 272 272 273 274 275 276 278 279 279 278 278 277
250 251 252 252 253 253 252 253 253 253 253 253 253 253 253 253 255 260 263 264 266 267 267 268 268 268 269 268 267 266 268 271 271 272 272 273 273 274 273 273 273 273 273 273 266 264 263 262 262 262 263 263 264 265 265 265 266 266 267 267 267 269 269 269 270 269 269 270 270 270 271 271 271 272 272 273 274 275 276 277 278 277 278 278 278
251 251 251 252 252 253 253 253 253 253 253 253 253 253 253 253 253 254 257 262 264 264 265 265 266 267 268 268 269 269 269 270 271 271 272 272 272 271 272 271 270 271 271 266 263 262 263 263 263 264 265 264 265 265 266 266 266 267 267 267 268 269 269 270 271 270 270 270 270 270 271 271 271 272 273 274 274 274 276 276 277 277 277 277 277
250 250 251 252 252 252 252 253 253 253 253 254 253 254 254 254 254 254 254 254 256 259 261 262 264 265 266 268 268 268 269 269 270 271 271 270 270 270 268 264 267 267 266 261 260 260 261 261 262 263 263 264 264 265 264 265 265 265 266 267 268 269 269 271 271 270 270 270 270 270 271 271 272 272 272 273 274 275 275 276 277 277 277 277 277
249 252 254 254 252 252 252 253 253 253 253 253 253 253 254 255 255 254 254 253 253 254 255 256 260 263 263 264 266 267 268 269 270 270 269 268 268 268 264 258 257 258 259 259 259 259 259 260 260 260 261 261 261 262 262 262 262 264 265 266 267 268 269 270 271 271 271 270 270 270 270 271 271 272 272 272 273 273 274 275 275 276 276 276 276
250 251 252 253 252 253 253 252 253 253 253 253 254 255 254 254 254 254 254 254 254 254 254 255 256 260 264 264 265 266 268 269 269 268 267 267 267 265 256 256 256 256 257 258 258 258 259 259 259 259 259 259 260 260 260 261 262 263 265 265 266 266 267 269 270 271 272 271 270 270 271 271 271 271 272 272 273 273 274 274 275 275 275 275 276
250 250 251 251 251 252 252 252 252 253 256 256 255 254 254 254 254 253 253 253 253 254 254 254 255 256 258 257 260 264 267 268 268 266 265 265 265 259 255 256 256 256 256 256 257 257 257 257 258 258 258 258 258 259 260 261 262 263 265 265 265 265 266 268 270 271 272 272 272 271 270 270 270 271 271 271 272 273 274 274 274 274 274 275 275
249 251 251 251 252 253 253 254 253 256 255 254 254 253 253 252 253 253 253 253 254 254 253 253 255 254 254 255 259 259 261 266 265 262 261 261 257 256 255 255 256 255 256 256 256 256 256 256 256 256 257 258 258 259 259 260 261 262 263 263 264 265 267 268 269 270 271 272 272 273 273 272 272 272 272 272 272 272 273 273 274 274 274 274 274
249 253 255 256 257 255 252 253 252 252 252 253 252 252 253 253 252 252 252 252 252 252 253 252 252 253 254 255 256 260 263 259 256 255 255 255 255 255 255 255 255 255 255 255 256 256 256 256 256 257 257 258 258 258 259 259 260 261 262 263 263 264 265 266 267 268 268 269 270 272 273 274 274 274 274 273 273 273 273 273 273 274 273 273 273
251 251 252 255 253 254 254 253 252 251 252 252 251 251 252 252 251 251 251 251 251 252 252 252 252 253 254 255 258 261 260 257 255 254 254 255 255 255 255 255 255 255 255 255 255 255 256 256 257 257 257 257 258 258 259 259 260 261 262 262 262 263 264 265 266 266 266 267 267 269 270 272 274 275 274 274 274 274 274 274 273 273 273 273 273
247 251 253 254 254 253 252 252 251 251 251 251 251 250 250 252 252 252 251 251 251 252 252 252 252 253 255 258 263 264 259 255 254 254 254 255 255 255 255 255 255 255 256 256 256 256 256 257 257 257 258 258 258 259 259 260 260 261 261 262 263 263 264 264 265 265 265 266 266 267 268 269 271 272 274 274 275 275 274 274 274 273 273 273 272
248 248 249 249 252 250 250 250 251 252 251 251 250 251 251 252 251 251 251 252 252 252 252 252 252 253 256 260 262 264 258 254 254 254 254 254 255 255 255 255 255 256 256 256 256 256 257 257 258 258 258 259 259 260 260 260 261 261 262 262 263 263 263 263 264 264 264 265 265 266 267 267 269 270 271 273 272 273 273 273 273 273 272 272 271
249 249 249 250 249 249 249 250 251 249 249 249 250 252 253 252 250 251 251 251 251 251 251 251 252 253 254 259 259 259 254 252 254 254 253 254 254 254 254 254 255 256 256 257 257 257 257 257 258 259 259 260 260 261 261 261 262 262 262 262 263 263 263 263 264 264 264 264 265 265 265 266 266 266 266 266 266 267 268 269 269 270 270 270 270
249 249 250 250 250 250 250 250 249 249 249 252 252 252 251 250 249 249 249 249 250 250 251 251 252 252 252 254 255 253 252 252 252 252 253 254 254 254 254 254 255 255 256 256 257 258 258 258 258 259 260 261 261 262 262 263 263 263 263 263 263 263 263 263 263 263 264 264 264 265 265 265 265 265 265 265 264 264 266 267 268 268 268 268 268
247 248 248 248 248 248 249 249 249 249 251 251 248 248 250 248 249 249 249 249 250 251 251 251 252 252 252 252 252 252 252 251 253 253 252 253 253 253 253 254 254 255 255 256 257 257 258 258 258 259 259 261 262 263 263 264 264 264 264 263 263 263 263 264 264 264 264 264 264 264 264 264 264 264 264 264 265 264 264 265 266 267 267 267 266
247 247 248 248 248 249 249 248 249 249 248 247 248 248 248 247 247 248 249 250 250 250 250 251 251 251 251 251 251 252 251 251 251 252 253 252 252 252 253 253 254 254 255 255 256 256 257 258 258 259 259 260 262 263 264 264 265 265 265 265 264 264 265 265 265 264 263 264 264 264 264 264 264 264 265 265 265 265 264 264 264 265 266 266 266
246 247 248 248 249 249 249 249 248 248 246 247 247 247 248 248 248 249 250 250 250 251 250 250 250 250 250 250 250 251 251 251 251 251 251 251 252 252 252 252 253 253 254 254 255 256 256 257 258 258 259 260 261 262 263 264 265 266 266 265 265 265 265 265 265 264 263 264 264 263 263 263 263 263 264 264 264 264 264 263 263 263 264 265 265
247 248 248 249 248 248 248 247 248 250 247 247 246 247 248 248 247 248 247 248 248 249 249 249 248 249 250 250 250 250 251 251 251 251 251 251 251 251 251 251 252 252 253 253 254 255 255 256 257 258 259 261 262 263 264 264 265 266 266 267 266 266 265 265 264 264 264 263 263 263 263 263 263 263 263 263 263 263 263 263 263 263 264 265 266
247 248 248 248 248 248 248 248 248 246 246 246 246 246 247 246 246 246 247 247 247 248 248 248 248 249 249 250 250 250 250 251 250 250 250 250 251 251 251 251 251 251 252 252 253 254 254 255 256 257 258 260 261 262 264 265 265 265 266 267 267 266 266 265 265 264 264 263 263 263 263 262 262 262 263 263 263 263 263 263 263 263 264 264 264
248 248 248 248 248 248 247 247 246 246 245 245 245 246 246 246 245 246 246 247 247 247 247 248 248 248 248 249 249 250 250 250 250 250 250 250 250 250 250 250 250 250 251 251 252 253 253 254 255 256 258 259 261 262 263 265 265 266 266 267 267 267 266 265 265 265 264 263 262 262 262 262 262 262 262 262 263 263 263 263 263 264 263 263 263
248 248 248 248 248 248 247 245 245 245 244 244 244 244 246 245 245 245 246 246 246 247 248 247 247 248 248 248 249 249 249 249 250 250 250 250 250 250 250 250 250 250 250 251 251 252 252 253 254 255 257 259 260 261 263 265 266 266 266 267 267 267 267 266 265 264 265 264 262 262 262 262 261 262 262 262 262 262 263 263 263 262 262 262 262
Wind_Speed
3 3 4 5 5 6 6 7 7 6 7 7 7 7 8 8 8 7 7 8 8 9 9 8 8 9 9 9 9 8 8 8 7 6 6 8 7 7 8 9 10 9 8 9 6 6 7 8 8 7 6 7 7 6 6 6 5 6 6 6 7 6 7 8 12 16 10 6 9 8 6 6 7 5 9 8 8 7 8 8 8 8 9 9 9
4 4 4 5 6 7 7 6 6 7 7 7 8 7 7 8 8 9 9 9 9 11 12 12 11 12 12 12 12 11 10 10 9 7 8 9 8 6 8 9 9 10 9 10 9 7 8 9 9 8 6 8 8 7 7 7 6 6 6 6 7 7 7 8 11 12 16 6 9 7 6 3 10 3 7 8 10 7 9 8 7 9 9 9 8
3 3 4 6 6 5 6 6 6 6 7 6 6 6 6 5 5 6 6 7 6 6 7 7 9 9 9 10 10 11 12 12 11 11 11 10 11 10 8 8 9 10 10 11 10 9 10 10 10 8 6 8 8 7 7 8 7 8 9 7 8 8 7 9 10 13 14 12 7 11 8 5 9 9 6 9 8 8 9 8 8 8 8 9 8
3 4 4 5 5 6 7 6 7 6 6 5 6 6 6 5 5 5 5 5 6 6 5 6 5 7 7 8 9 9 10 10 9 8 9 9 10 11 10 10 10 9 10 10 10 9 10 12 11 10 8 10 9 9 7 7 8 8 9 8 8 9 8 8 10 11 11 12 8 8 9 8 8 6 7 7 7 7 8 8 5 7 7 7 9
4 4 5 6 6 7 7 7 7 7 7 6 7 7 7 6 6 7 8 8 8 8 8 7 8 7 8 8 9 9 9 9 10 10 10 9 10 11 11 10 10 11 11 10 10 10 11 11 12 11 10 12 11 9 8 9 8 8 9 9 8 8 8 8 10 10 11 13 12 7 8 9 8 7 5 7 7 8 7 9 8 8 8 7 6
5 6 6 6 6 7 6 6 6 6 5 6 6 6 7 7 8 8 8 10 10 9 9 9 9 11 10 10 10 10 10 10 10 10 10 9 9 9 10 10 11 12 12 12 11 10 11 11 11 11 11 12 12 11 10 11 10 10 10 10 9 9 10 10 9 11 12 13 11 10 6 9 9 9 6 6 8 9 8 7 6 6 7 7 8
5 6 5 5 5 5 5 5 4 4 5 5 6 6 7 8 8 9 9 9 10 10 10 10 10 10 10 10 11 11 11 11 11 11 10 10 11 12 12 12 11 10 10 12 12 11 11 11 11 10 11 11 12 12 12 12 10 12 11 11 10 10 11 11 10 11 12 13 12 9 9 7 8 11 7 6 9 9 10 9 8 6 6 9 10
5 5 4 5 4 4 4 4 3 4 4 4 5 5 5 6 6 6 6 7 7 7 9 9 9 8 9 9 9 10 11 11 10 9 10 11 12 12 13 13 13 12 12 11 10 11 11 12 11 11 11 11 11 11 11 12 11 12 11 10 9 10 11 11 11 11 12 12 12 12 8 9 7 7 5 1 6 8 6 7 12 11 8 7 9
4 3 3 3 2 2 2 2 3 3 3 3 3 4 5 5 5 6 6 6 6 7 7 8 10 10 8 9 10 9 9 9 8 8 10 11 11 12 13 13 13 13 13 13 12 12 11 11 11 11 13 16 19 20 19 17 13 13 13 11 11 11 12 10 10 10 11 11 13 11 11 10 9 8 7 7 9 12 6 6 10 11 8 7 8
3 3 3 2 2 1 2 2 3 3 4 5 5 6 6 7 7 6 7 6 7 7 8 9 8 10 10 10 9 8 8 6 11 20 18 14 13 12 12 12 13 13 13 14 13 13 11 12 11 22 25 26 26 26 26 27 27 19 15 12 11 12 12 12 12 11 11 12 13 12 13 12 11 9 9 9 8 6 8 6 10 10 7 8 10
3 3 2 1 1 2 3 4 4 5 6 6 5 6 9 7 7 6 6 6 8 8 8 9 8 9 9 10 10 9 8 8 19 21 22 23 16 13 13 13 12 11 11 12 13 13 13 11 11 15 18 19 18 24 26 26 25 27 29 27 21 16 13 15 14 12 12 13 13 12 12 14 14 10 9 8 6 8 9 9 10 10 9 8 13
3 2 1 1 2 4 4 5 5 5 5 5 6 6 6 6 7 7 7 8 7 6 8 8 9 9 8 9 10 10 9 14 21 22 22 23 20 16 15 14 14 14 13 13 12 12 12 12 10 10 11 14 15 15 19 25 26 27 27 27 27 29 26 19 16 14 13 13 14 14 13 14 13 10 8 6 8 7 9 10 10 10 11 11 10
2 2 2 3 4 4 5 5 5 5 6 6 6 6 7 7 7 8 8 6 6 6 8 8 8 8 9 10 10 10 10 16 21 23 23 23 23 20 14 14 14 15 15 15 14 12 11 11 11 10 10 21 17 12 11 12 19 26 27 28 27 27 26 28 28 20 14 15 15 17 15 14 15 13 8 8 5 9 7 10 9 10 11 11 12
3 3 3 4 4 5 6 5 5 5 5 6 6 7 7 7 7 6 7 7 7 7 6 8 7 8 9 10 11 11 10 15 22 23 23 24 24 21 15 16 15 15 15 15 14 13 13 12 12 12 11 12 12 15 14 16 14 17 17 16 16 20 26 29 29 33 27 18 16 18 17 14 15 13 12 7 10 10 8 11 9 11 11 14 14
3 3 3 3 4 4 4 4 5 5 5 6 6 6 6 7 7 7 6 7 8 8 9 9 8 8 9 9 10 11 10 20 22 24 23 24 24 21 14 14 13 14 14 14 15 15 15 14 14 13 12 11 11 16 15 15 15 15 16 15 15 15 17 17 16 15 14 14 16 18 19 17 16 15 14 11 12 12 11 11 11 12 12 11 11
3 3 3 2 3 4 4 4 5 5 7 6 6 7 7 6 7 7 6 7 6 6 7 6 9 10 9 10 11 12 11 20 23 23 24 23 25 15 13 13 13 13 13 13 14 13 13 14 14 15 15 16 18 24 21 16 14 16 18 18 17 16 15 15 21 20 18 16 16 16 16 17 19 18 16 13 11 11 11 10 8 8 9 11 13
2 2 1 3 3 3 4 4 5 6 6 7 8 7 8 8 6 5 8 7 8 8 8 8 8 10 11 10 11 12 11 16 22 23 24 25 20 12 13 12 12 12 13 13 13 14 13 13 14 15 16 15 19 25 25 24 17 17 16 15 15 15 16 16 20 25 26 28 30 31 31 32 33 33 32 35 24 15 11 11 13 9 11 13 13
1 1 2 2 3 3 5 4 5 6 6 7 8 8 7 6 6 5 7 9 9 8 8 9 8 8 10 11 10 13 12 15 23 23 24 23 20 14 11 11 12 12 13 13 12 12 14 22 20 17 17 17 23 26 26 21 16 16 16 16 16 14 12 10 9 12 23 27 28 30 32 32 34 33 31 29 30 24 14 16 13 10 14 11 14
0 1 2 2 3 3 3 4 5 6 7 7 7 8 8 8 7 6 7 7 9 8 8 9 9 8 8 11 15 16 13 15 21 23 24 23 18 12 10 10 12 12 12 12 12 12 14 16 24 23 20 21 26 24 25 21 16 14 13 13 15 15 12 12 13 14 13 14 13 16 17 20 19 19 19 29 34 26 18 16 13 13 14 13 14
0 0 2 3 3 3 3 4 5 6 8 8 7 7 7 7 7 7 7 6 8 8 8 8 11 10 9 10 10 10 12 12 14 24 23 23 23 15 10 10 10 12 12 12 12 12 12 12 16 22 24 26 27 28 26 26 19 14 12 13 14 15 8 10 13 13 13 14 14 15 16 16 16 14 13 14 17 17 18 16 15 15 15 15 14
0 2 2 3 3 4 4 4 7 7 6 8 7 7 6 8 8 7 8 8 7 9 9 9 10 10 9 9 9 10 9 12 13 22 23 24 25 21 11 11 11 11 11 12 11 11 10 9 8 18 27 27 27 27 27 26 24 17 13 12 13 17 21 15 17 23 16 15 13 12 13 12 14 14 15 13 12 12 13 15 15 15 15 15 15
1 1 3 3 4 4 5 5 5 6 6 7 8 9 7 7 7 8 7 7 9 10 9 9 9 10 9 9 9 10 11 16 13 18 24 25 25 26 15 11 13 12 12 10 9 9 11 12 10 17 26 26 26 27 28 27 27 17 16 25 30 30 21 16 13 10 11 12 11 11 12 11 12 12 13 13 12 12 13 12 13 14 14 15 15
2 2 3 4 4 4 5 6 7 5 6 7 8 10 8 7 7 7 8 8 8 10 9 9 9 10 9 8 8 9 10 10 18 16 22 25 26 25 26 20 24 16 12 12 12 12 11 12 12 23 27 28 28 29 28 30 24 17 26 27 27 29 24 12 10 10 10 11 11 13 13 13 11 11 10 12 11 12 12 12 14 14 14 15 15
1 2 3 4 4 5 5 5 6 5 7 7 7 8 9 7 7 6 7 7 8 9 8 8 8 9 10 10 9 9 9 9 13 21 20 25 25 26 26 27 26 16 14 12 11 11 12 13 15 27 28 28 28 26 26 25 19 26 27 28 27 25 15 12 10 10 11 10 10 11 11 10 11 12 11 10 11 12 14 15 16 16 15 14 15
2 4 4 4 4 5 5 6 6 6 6 6 7 8 8 6 7 5 6 7 7 8 9 7 8 9 9 10 10 10 10 10 10 14 23 23 25 26 27 28 27 28 18 12 14 13 19 29 31 29 28 27 28 27 22 22 26 26 27 26 24 12 10 9 10 10 11 10 11 12 11 9 10 12 14 12 14 14 15 15 15 15 15 16 15
2 4 4 4 5 5 6 7 6 6 7 6 7 7 8 7 7 7 6 7 7 8 9 8 8 8 9 10 10 11 11 10 11 11 11 14 17 25 30 29 29 28 26 20 26 31 31 30 32 30 26 22 16 11 11 12 21 25 26 25 13 10 10 10 10 11 11 12 11 13 12 10 10 11 13 14 12 13 13 15 13 13 13 13 13
3 4 5 5 4 4 6 6 6 6 5 5 5 6 6 6 6 7 7 8 8 7 8 8 9 9 10 11 11 12 11 12 12 10 9 11 11 14 16 16 22 24 16 13 16 17 20 21 17 22 21 26 25 23 22 21 16 14 11 10 10 11 11 10 11 12 12 11 13 12 10 11 10 10 10 11 13 13 14 14 14 14 13 13 14
3 4 5 4 5 5 6 7 8 6 6 5 6 7 6 5 6 7 8 8 8 9 8 9 10 11 11 11 12 11 9 10 9 10 11 11 11 10 10 10 9 8 10 11 12 13 12 16 18 12 11 10 11 9 9 9 11 12 11 10 11 11 14 20 21 13 12 11 12 12 11 10 11 11 10 11 12 12 12 13 13 15 15 13 14
3 4 4 4 6 4 5 6 6 6 7 6 6 6 8 7 8 9 9 9 9 8 8 13 14 10 9 10 10 7 9 9 9 16 18 22 19 16 12 11 11 11 15 24 16 9 7 7 7 8 7 7 7 8 7 7 8 8 10 10 10 10 9 8 10 11 11 11 12 12 12 11 10 10 11 12 11 13 13 14 14 15 15 14 14
3 4 4 4 5 5 5 5 5 6 6 7 8 8 9 15 12 9 8 14 20 21 18 12 11 9 9 8 8 9 9 11 23 29 26 27 27 28 26 27 27 22 24 30 19 8 6 6 7 8 9 8 9 9 9 8 9 10 9 13 12 11 10 10 10 12 11 12 11 11 10 10 11 10 10 13 14 12 15 17 14 13 13 12 12
3 4 4 4 5 5 5 5 5 5 5 6 6 8 11 11 14 16 16 15 18 19 20 22 22 20 13 10 11 21 24 26 26 26 27 26 26 27 27 26 27 27 26 18 9 7 7 7 8 8 8 8 8 9 8 9 10 9 10 9 10 11 13 11 11 10 11 11 12 11 12 11 11 10 12 12 13 14 13 13 13 14 16 15 14
4 4 4 4 5 5 4 5 5 5 5 5 6 6 7 11 14 10 9 12 15 17 18 18 16 16 19 18 15 11 18 22 25 25 25 26 25 25 25 26 26 25 24 20 9 8 7 8 8 8 8 9 9 8 8 8 10 9 10 9 10 10 10 11 10 10 10 10 11 11 11 11 10 12 11 12 13 13 14 14 11 10 9 9 10
4 4 4 5 5 6 5 5 5 5 5 6 6 5 6 7 9 15 16 11 10 12 13 11 13 17 20 21 22 19 19 20 24 24 25 24 24 23 24 24 22 21 19 10 7 9 8 8 8 8 8 8 10 9 9 10 9 10 9 10 10 11 11 13 14 12 11 11 11 10 10 10 10 10 11 10 10 12 12 13 11 11 10 10 10
4 4 4 5 5 5 4 4 5 5 5 5 5 6 6 6 7 8 11 17 18 9 2 6 12 19 21 22 20 20 21 22 23 23 23 22 22 22 20 15 18 16 13 9 9 9 10 10 10 10 10 10 10 10 10 9 10 10 12 10 11 11 13 13 11 11 10 11 10 10 10 10 10 9 9 8 9 10 11 10 9 9 11 11 11
3 5 8 6 4 5 5 5 5 5 5 5 5 6 6 6 6 6 7 9 10 13 15 12 9 13 16 15 18 21 23 23 22 22 22 21 21 21 18 10 12 11 9 6 8 8 9 10 11 11 11 11 11 11 12 12 11 11 12 13 12 12 11 12 12 11 10 10 10 10 10 10 10 10 10 10 10 10 10 9 8 7 7 6 7
3 4 4 4 4 4 5 5 5 5 6 6 5 4 6 6 6 6 6 5 7 11 12 12 11 15 20 16 18 20 22 21 20 20 19 20 20 20 11 10 9 9 9 9 8 9 8 9 10 11 10 11 10 11 11 11 11 11 10 11 13 13 13 13 13 12 11 10 10 11 10 10 10 10 10 11 12 12 10 8 7 7 7 7 7
3 4 3 3 4 4 5 5 5 5 7 7 6 5 5 5 6 5 6 5 7 6 8 11 13 11 8 6 12 20 21 19 19 18 18 18 19 10 5 7 7 8 8 8 9 8 8 8 9 10 10 10 10 9 10 10 11 11 13 12 11 13 12 12 13 14 13 11 10 10 10 10 10 10 10 10 10 10 9 7 6 6 6 8 7
4 4 4 4 5 5 5 5 4 7 6 5 5 5 5 5 5 5 6 6 6 7 8 9 8 9 12 13 13 10 13 15 16 12 12 12 10 7 7 6 7 7 8 8 8 8 9 9 8 8 9 9 9 10 10 11 10 11 11 12 12 12 19 16 16 14 14 12 11 10 10 10 10 10 10 10 10 9 9 8 6 6 6 8 7
3 6 8 9 7 5 4 4 4 4 5 5 5 5 6 5 5 4 5 5 5 6 7 7 7 9 9 10 12 12 13 10 10 10 10 8 7 6 7 7 7 7 7 7 8 8 8 9 10 9 9 9 10 10 9 10 10 10 10 10 11 11 13 11 11 12 12 12 12 12 11 10 10 10 10 10 9 9 9 8 6 6 6 6 7
3 3 4 8 5 6 5 5 4 5 6 5 5 4 5 5 5 5 5 5 6 6 6 7 8 8 9 10 10 10 9 10 9 9 9 9 9 8 7 8 8 8 8 9 8 8 9 9 9 9 10 10 10 10 9 9 9 9 10 10 10 12 12 11 10 10 10 11 11 12 12 12 11 10 10 9 9 8 8 8 7 7 7 7 8
3 3 4 5 6 5 4 5 5 5 4 5 5 6 5 6 5 5 5 5 6 6 6 7 7 7 8 12 19 17 8 8 9 10 9 9 9 9 9 8 8 9 8 8 8 8 9 9 10 9 9 9 9 9 9 9 9 10 9 10 10 11 12 11 11 11 11 10 10 10 10 10 11 11 9 8 8 8 7 7 7 7 7 8 8
3 3 3 4 5 4 4 5 5 5 4 5 5 5 6 6 4 4 6 5 6 6 7 7 7 6 10 19 17 19 10 6 7 8 8 8 8 8 8 7 7 7 8 9 9 9 9 9 10 9 10 10 10 10 10 9 9 9 10 10 10 9 9 11 10 11 11 10 10 10 9 8 9 10 10 9 6 5 4 4 5 6 6 6 5
3 3 4 5 4 4 5 5 4 4 4 4 5 5 5 4 4 5 5 6 5 6 6 7 7 7 8 13 15 15 7 6 6 7 7 8 8 8 8 7 8 8 8 8 8 8 8 9 9 9 10 10 10 10 10 10 10 10 10 10 10 11 11 11 11 11 10 10 10 10 10 9 7 7 8 7 7 5 2 1 1 1 1 2 4
3 4 5 4 5 4 5 5 5 5 4 5 5 5 5 4 4 4 5 5 5 5 5 6 6 7 8 9 9 7 6 7 7 7 8 8 8 8 8 8 8 8 8 8 8 8 8 9 9 9 10 10 10 10 9 9 8 9 10 10 9 10 11 11 11 11 10 8 9 9 9 8 7 7 7 7 7 5 4 2 3 4 4 3 3
3 3 4 5 4 5 5 4 4 5 6 5 4 4 5 3 5 5 5 5 6 6 5 6 6 6 8 7 7 7 7 7 8 8 7 7 8 8 8 8 9 9 9 8 8 9 9 9 9 10 11 10 10 10 10 9 8 7 8 9 10 9 10 11 10 10 10 9 8 8 8 7 7 7 6 6 6 5 5 4 3 4 5 4 5
3 3 5 4 5 5 5 5 5 4 4 5 5 5 4 4 5 5 6 6 6 6 6 6 6 6 7 7 7 8 7 7 7 7 8 7 7 8 7 8 8 9 8 8 9 9 9 9 9 10 11 11 11 11 10 10 10 8 7 8 9 9 9 9 9 9 9 9 8 7 7 7 7 7 8 6 5 5 5 5 4 4 4 5 4
3 3 4 5 5 6 6 5 4 4 4 4 4 4 5 5 5 5 6 6 6 7 6 6 6 6 7 7 7 7 8 7 7 7 8 8 8 8 8 8 8 8 9 9 8 8 9 9 9 10 10 10 10 11 10 10 10 10 8 7 8 9 9 9 9 8 8 8 8 7 7 6 6 6 7 7 6 6 5 5 4 4 4 4 4
4 5 5 5 4 5 5 4 5 5 4 5 3 5 5 6 5 6 6 5 5 6 5 6 6 6 7 7 6 6 7 7 7 7 7 7 7 7 8 8 8 8 8 9 8 8 8 9 9 10 10 11 11 10 10 10 10 11 10 8 8 10 13 14 9 9 8 8 8 8 7 7 6 6 6 6 5 5 5 5 4 4 5 5 5
4 4 4 5 5 5 6 6 6 6 5 5 3 4 5 5 5 5 5 5 5 5 5 6 7 6 6 7 7 7 7 8 7 7 7 7 7 7 8 8 9 8 8 8 9 9 9 9 9 9 10 10 10 11 10 10 11 11 12 10 12 16 15 17 12 10 11 9 8 8 7 7 7 7 7 7 6 5 5 5 5 5 5 6 6
4 4 5 5 6 6 6 6 6 6 6 4 4 5 5 6 5 5 5 5 5 6 5 5 6 6 7 7 8 7 6 7 7 7 7 7 7 7 7 8 8 8 8 8 9 9 8 8 9 9 10 10 10 10 10 9 9 10 11 13 17 16 14 15 14 16 12 7 8 7 7 7 8 7 7 7 7 7 7 6 6 7 6 7 7
5 5 5 5 5 5 5 6 6 6 5 5 5 6 6 6 6 5 5 5 6 6 6 6 6 6 7 6 7 7 7 7 7 7 7 7 7 7 7 8 8 8 9 8 9 9 8 8 8 9 9 10 10 10 11 10 8 11 15 19 18 18 17 15 11 14 17 11 7 8 7 8 8 8 8 8 7 8 8 8 8 7 6 6 5
Wind_Direction
49 35 29 22 31 22 18 15 5 11 13 19 21 14 11 6 2 354 347 357 353 351 349 348 345 343 340 340 339 337 336 332 335 329 328 325 325 319 318 321 320 316 313 308 305 303 297 293 293 287 287 284 279 282 283 273 260 249 245 242 243 231 224 241 257 272 276 237 273 267 271 262 275 226 254 257 268 253 238 236 235 237 238 237 239
19 10 19 25 32 18 13 12 12 11 15 14 15 10 7 4 354 355 355 345 355 347 347 345 345 343 343 340 338 337 335 333 333 335 330 326 321 320 320 319 316 312 312 306 307 303 297 295 291 290 288 281 280 277 274 278 270 261 253 241 246 246 219 239 255 263 277 271 277 267 271 215 268 183 242 251 258 262 255 240 232 231 235 235 236
4 20 28 35 22 29 31 23 16 20 17 13 9 4 2 354 350 354 341 338 343 342 334 334 331 332 332 331 332 333 333 332 334 334 330 327 322 319 317 312 308 306 306 302 304 305 301 296 292 291 290 286 283 277 273 270 266 263 263 248 251 250 239 230 252 265 269 271 249 277 266 248 234 256 230 247 246 247 258 255 236 236 234 233 235
10 34 31 44 36 37 32 18 17 11 10 2 2 356 357 354 349 355 340 338 341 337 335 327 326 327 325 325 327 325 325 323 321 320 316 316 314 311 311 307 301 296 292 293 296 297 295 298 297 297 292 286 283 281 275 269 268 269 267 262 252 258 247 241 239 255 268 276 257 250 272 268 261 244 253 258 255 259 248 262 253 249 246 234 233
45 48 54 54 38 35 21 14 9 2 359 357 354 353 354 354 355 354 348 347 348 340 338 342 333 333 332 327 325 323 321 322 320 319 318 316 312 308 306 303 300 296 293 289 287 289 289 286 291 296 296 290 285 281 279 274 270 270 270 269 265 261 257 247 253 250 262 264 270 244 250 260 262 266 223 249 261 253 255 251 247 249 249 248 247
55 58 46 50 35 26 14 6 359 352 352 351 352 353 355 359 353 353 352 345 343 343 340 341 341 333 334 331 328 326 325 325 321 317 314 311 305 300 296 294 295 294 293 291 289 286 285 285 286 287 287 285 288 288 284 281 279 272 271 271 270 267 267 262 255 260 259 265 264 272 232 255 266 261 236 217 248 262 261 256 259 247 253 261 245
52 56 50 51 39 20 6 351 342 348 354 352 355 359 1 356 352 347 347 343 339 339 340 337 335 330 328 329 328 327 326 324 323 319 317 318 315 310 305 300 294 290 285 285 286 284 282 281 282 282 281 281 283 285 289 286 283 278 272 274 270 272 272 269 265 263 264 269 270 256 262 245 239 264 251 202 237 243 260 272 266 238 227 233 253
54 52 49 43 34 4 352 330 351 356 351 4 358 358 352 344 340 336 336 336 333 337 335 330 328 330 324 325 326 326 320 317 316 316 315 314 309 305 304 302 301 298 296 291 288 285 284 283 282 282 280 280 281 282 283 285 284 281 279 276 275 272 270 273 273 270 270 270 269 275 255 261 250 244 266 212 269 260 221 241 261 261 243 233 234
61 64 59 59 18 345 331 340 6 355 0 355 347 346 339 333 334 334 333 334 337 332 331 332 327 323 322 324 322 319 316 314 316 318 313 308 305 302 302 300 298 297 295 292 289 287 285 284 284 283 281 280 280 282 282 281 281 282 278 275 275 273 273 271 271 271 271 271 275 271 272 264 255 252 245 230 233 253 250 187 250 257 265 257 243
93 80 70 57 358 355 351 7 9 356 354 350 351 344 340 341 341 340 341 341 338 334 336 333 326 328 326 323 326 321 316 314 317 317 316 311 308 304 298 293 291 290 291 292 290 289 288 289 286 289 290 290 288 286 285 284 281 277 278 276 272 271 271 272 270 267 267 267 266 272 271 266 261 249 247 237 236 249 258 233 252 262 254 256 264
85 80 63 26 360 17 18 12 1 357 355 350 348 347 344 344 341 339 341 341 337 338 336 329 334 329 325 325 324 320 315 314 318 318 316 313 310 304 300 296 290 285 283 287 291 296 294 289 287 290 289 288 290 290 288 286 283 283 282 280 278 275 275 271 266 264 264 263 267 265 263 268 265 258 250 249 229 222 235 238 248 259 254 254 266
97 87 71 37 38 27 13 5 358 351 352 350 345 342 338 339 338 336 335 335 335 333 329 328 326 324 321 321 317 313 312 311 315 313 311 310 309 305 301 299 299 297 297 296 295 295 296 297 295 293 288 289 291 290 287 286 286 284 283 281 280 276 271 267 269 267 261 264 266 263 266 263 270 262 257 241 240 225 227 234 236 241 251 249 253
81 60 45 45 34 18 8 4 352 349 347 344 337 337 337 333 334 334 330 326 322 324 322 322 317 319 317 316 313 310 306 309 309 308 307 307 306 304 297 296 295 295 295 296 296 297 302 305 304 298 299 301 299 294 293 294 292 290 287 286 284 282 279 274 269 268 273 269 267 268 261 269 270 265 253 251 232 237 217 232 231 237 240 245 250
62 47 47 37 23 7 2 356 346 339 336 334 333 331 331 327 324 319 315 321 320 316 314 312 313 313 313 311 307 306 301 304 306 305 306 305 305 303 297 296 295 295 297 298 299 301 302 301 299 298 302 303 301 301 300 293 288 285 280 275 272 275 275 272 271 270 269 269 270 268 268 263 263 269 264 253 251 247 234 238 222 235 236 239 242
49 59 51 29 18 360 353 343 334 329 329 326 325 321 319 316 317 317 318 317 319 316 318 316 312 310 308 306 302 301 299 303 305 305 305 304 303 303 300 299 297 296 296 296 296 298 299 298 297 295 295 291 289 293 290 286 286 285 282 275 269 263 262 262 261 261 260 259 261 264 269 268 267 267 269 257 249 253 248 246 235 234 239 248 255
63 68 37 17 6 345 343 331 327 326 322 321 319 315 314 310 313 314 309 305 297 301 301 302 305 308 305 303 301 297 298 305 305 304 303 303 305 304 303 299 296 294 294 297 296 296 297 297 299 299 301 301 301 301 298 293 285 281 281 283 286 286 282 278 277 275 269 259 253 254 258 260 263 263 264 261 257 255 257 260 258 247 245 245 246
72 56 27 355 343 339 332 327 321 318 317 315 312 311 313 313 310 310 306 303 306 306 302 303 304 303 303 300 298 296 295 303 304 304 304 305 308 302 298 295 294 295 294 295 294 294 293 294 294 295 296 298 300 301 300 299 294 289 285 281 277 275 277 279 276 277 278 280 279 275 271 269 267 265 263 262 261 256 251 249 246 235 238 244 247
84 45 350 337 324 324 324 319 310 309 309 305 305 305 305 301 301 310 306 308 305 302 302 301 296 294 296 296 295 295 295 301 304 303 305 305 305 302 300 295 292 292 293 290 292 291 293 295 297 297 295 292 292 290 291 292 285 285 287 288 286 280 277 279 278 277 278 276 275 276 276 276 276 275 273 270 267 262 253 249 245 235 242 233 247
99 357 316 315 307 307 307 305 300 300 298 297 299 301 303 301 301 301 293 294 294 300 299 296 294 290 285 287 293 294 293 298 300 302 303 305 304 294 289 284 289 293 294 293 290 290 289 287 286 288 289 289 290 293 296 298 296 294 289 281 279 279 281 286 283 282 280 279 279 281 279 276 272 267 264 264 265 264 259 258 254 242 243 238 241
143 310 289 290 291 298 296 297 293 293 293 295 296 292 294 299 297 297 295 290 294 296 293 291 292 292 289 288 287 286 289 289 293 299 303 303 303 299 289 289 287 286 284 283 282 274 268 266 270 280 285 288 290 291 292 290 287 285 288 288 288 286 305 297 289 286 283 276 276 273 269 271 274 272 267 258 254 250 251 251 250 249 247 243 239
239 272 281 285 288 290 293 286 290 288 285 290 292 292 291 291 296 293 294 293 288 291 290 289 289 289 289 286 285 285 280 286 288 296 301 302 301 302 290 284 280 278 277 273 268 271 266 266 256 280 288 290 290 291 289 287 286 283 276 269 270 279 283 279 280 282 281 281 275 272 270 268 267 267 265 261 255 250 246 244 246 246 246 246 241
252 265 277 281 286 289 286 286 281 285 290 291 293 288 285 283 286 290 287 289 291 288 289 290 290 290 289 286 284 283 283 284 288 295 297 297 299 300 298 285 285 281 279 276 279 276 276 277 270 278 286 289 289 287 287 285 284 283 279 282 285 286 286 282 280 278 273 276 271 265 263 261 263 261 263 262 256 252 253 250 246 245 244 246 244
243 262 278 281 281 282 285 287 288 288 287 283 283 286 288 288 282 280 284 286 285 288 290 291 293 294 293 290 286 283 282 279 289 292 292 295 298 300 298 296 294 294 287 283 279 274 272 273 270 278 284 286 285 282 281 284 287 284 285 289 290 291 292 288 282 279 278 277 279 280 281 277 271 264 257 256 253 254 256 250 250 245 245 245 243
267 281 277 277 285 288 286 285 281 280 279 282 278 280 285 282 280 275 279 282 288 291 289 291 293 294 298 297 292 288 285 282 285 289 289 290 295 297 297 296 296 290 286 281 282 277 281 277 272 276 278 280 285 291 297 300 298 298 297 294 293 292 290 289 286 281 277 270 266 270 272 271 275 276 275 274 273 265 262 258 251 245 243 242 242
283 280 280 283 286 283 285 280 281 277 273 273 280 280 282 283 287 276 274 282 281 284 287 288 288 291 293 292 293 292 289 287 282 279 283 286 292 295 295 293 292 293 291 280 273 271 274 279 283 286 292 298 298 299 300 298 293 291 290 290 290 286 283 277 280 279 275 274 276 275 271 271 274 276 282 283 282 276 267 257 247 243 239 238 240
282 277 280 283 284 289 291 286 278 272 270 264 262 267 275 284 282 287 281 276 275 278 284 285 282 283 283 285 287 288 288 286 284 278 270 270 277 282 283 283 282 283 283 282 285 285 287 289 290 293 294 292 289 277 263 270 280 289 292 295 295 290 287 285 278 276 272 275 271 272 272 274 267 271 271 272 273 271 274 269 259 243 234 235 237
266 280 284 287 288 286 284 285 285 278 274 273 265 269 270 268 271 276 277 278 277 273 275 279 282 279 280 284 287 289 286 289 284 281 288 287 279 276 279 275 274 277 276 270 271 274 274 277 275 276 278 282 287 289 288 290 291 287 280 275 273 270 269 266 267 268 271 267 268 265 268 266 266 267 268 270 267 265 262 263 262 258 242 229 229
260 270 278 282 284 282 279 280 284 290 286 283 288 286 271 260 264 266 272 273 277 277 274 277 279 283 286 287 287 280 268 273 285 296 293 282 279 277 271 273 271 255 262 261 259 262 262 267 271 273 276 276 277 270 267 266 268 271 267 265 263 261 263 268 273 268 265 264 266 271 269 267 264 262 261 259 260 261 257 253 249 250 241 229 225
264 277 279 284 280 277 274 280 283 286 292 285 267 263 281 282 272 268 251 244 241 246 241 223 257 267 266 279 284 264 290 298 292 301 302 306 307 305 303 301 298 293 293 296 294 277 240 253 243 260 252 263 267 272 278 279 279 278 283 280 275 273 269 261 260 262 263 264 265 266 267 265 267 267 271 270 266 266 261 257 247 244 236 221 222
273 278 275 274 278 280 282 282 285 285 285 293 297 289 268 283 280 277 280 281 282 286 290 290 295 294 290 283 289 301 305 303 307 309 309 310 311 311 309 306 305 306 308 310 316 312 308 308 308 304 300 304 298 296 298 299 297 293 285 289 286 278 270 264 258 262 264 265 266 267 267 269 268 269 268 274 278 274 264 251 246 238 236 224 220
262 273 280 277 276 283 287 290 286 282 282 289 293 301 309 302 295 287 283 285 291 296 298 300 303 305 309 310 310 306 305 307 310 311 313 315 313 311 311 313 315 317 319 318 328 327 325 317 306 301 296 293 291 291 292 291 290 285 286 283 278 275 276 270 264 259 258 260 263 263 264 263 268 271 275 276 281 282 279 258 245 238 229 220 215
245 261 268 275 287 286 279 278 284 287 289 286 292 301 305 312 313 302 290 296 302 302 303 309 313 317 316 314 313 307 309 312 316 318 318 315 316 320 323 322 322 323 320 326 329 323 319 308 302 299 298 293 292 292 290 288 290 289 288 288 285 280 277 272 266 255 256 260 262 264 265 267 266 269 268 272 275 279 281 268 241 235 230 225 215
237 261 263 277 280 281 283 280 282 285 293 300 300 298 302 309 313 319 319 312 306 308 317 323 326 323 322 321 319 318 320 322 322 320 320 325 330 330 328 331 332 329 334 344 337 322 319 311 303 299 300 300 303 303 301 298 297 298 296 293 292 292 288 281 277 271 265 262 261 259 258 258 259 260 265 264 269 276 280 273 243 229 224 220 220
234 242 262 268 274 278 276 276 282 285 282 288 286 292 291 291 302 307 314 323 331 336 323 333 330 327 323 323 326 328 329 327 325 328 336 339 337 337 342 339 335 342 353 346 341 332 330 325 321 321 319 317 317 317 312 310 311 307 303 294 294 296 294 289 283 273 264 261 259 258 259 259 260 261 262 264 267 278 281 280 268 244 225 218 216
241 256 263 268 262 270 273 279 282 283 283 283 283 283 286 297 302 302 308 313 315 316 319 323 325 327 324 325 331 333 331 330 334 342 345 345 344 350 352 343 344 344 349 347 337 333 327 326 322 320 321 319 316 315 313 311 306 302 305 306 305 301 302 303 296 284 272 266 260 258 257 259 261 261 265 270 277 279 284 282 268 251 246 241 230
245 258 254 258 264 262 273 271 272 277 280 275 269 283 296 297 297 293 293 289 295 306 308 310 314 322 324 329 332 332 330 333 345 350 348 349 353 359 350 345 340 338 336 334 333 329 327 320 318 313 313 307 306 305 303 300 301 300 300 306 310 310 306 304 303 298 285 273 265 262 260 260 258 259 262 263 265 267 270 272 267 262 245 230 217
244 248 254 259 256 265 268 266 264 265 281 297 301 296 290 287 286 285 285 285 294 289 293 308 318 317 319 302 323 326 323 337 349 347 348 350 355 357 338 335 328 327 328 329 326 321 315 312 309 304 301 299 299 299 301 300 302 303 310 309 303 304 305 305 308 310 305 291 276 266 260 259 259 257 255 260 261 262 262 258 248 238 242 242 230
234 248 254 253 250 258 264 263 267 289 295 289 286 286 286 278 282 286 291 297 299 304 306 307 310 312 320 324 327 313 318 337 342 342 343 347 348 348 345 332 330 326 322 320 320 316 312 309 306 302 301 300 300 304 304 305 307 307 307 305 308 304 309 311 313 313 313 310 300 285 272 263 257 257 256 254 255 259 255 248 239 234 232 234 226
239 254 271 286 288 270 256 274 283 285 282 280 282 286 290 294 293 289 292 297 297 299 297 301 302 308 312 315 320 314 330 344 349 343 339 336 336 334 330 327 322 321 318 314 314 315 311 310 311 309 305 305 305 304 303 302 302 303 304 304 306 306 310 311 313 320 322 320 318 313 301 282 269 261 254 252 252 248 251 250 237 225 225 227 223
244 246 270 282 278 285 285 282 279 278 275 283 285 282 290 292 290 296 305 304 303 303 301 302 304 302 308 311 307 325 343 339 333 329 330 332 334 335 333 330 329 324 323 320 318 317 314 310 309 310 309 307 305 304 303 301 301 301 304 306 307 308 309 309 313 317 316 316 315 314 314 312 303 280 258 249 245 244 246 243 236 221 219 220 222
235 250 268 271 277 283 292 279 269 264 266 275 278 284 279 284 292 302 301 294 297 297 297 294 292 295 296 310 324 336 354 336 324 323 323 324 325 328 330 328 327 324 321 319 317 315 314 313 312 310 307 304 303 304 306 307 307 307 306 306 307 308 310 308 312 313 313 310 308 308 309 310 310 308 287 259 246 244 239 234 229 221 217 218 215
240 256 257 258 271 271 269 269 265 275 281 277 277 276 276 283 294 297 295 298 296 295 296 294 291 292 304 319 328 340 345 323 316 313 314 316 317 318 318 318 317 316 317 317 318 317 317 316 313 312 310 311 310 309 310 310 313 313 312 311 312 308 308 314 314 313 313 313 312 310 307 308 314 320 316 311 295 271 248 238 230 219 210 210 210
239 242 247 262 261 258 260 265 278 280 275 273 274 272 283 293 290 287 291 286 286 290 292 299 302 306 310 320 330 334 330 310 310 312 309 312 313 315 315 317 317 316 315 311 310 311 312 312 312 312 313 312 311 309 311 310 312 317 317 316 317 318 318 318 318 318 318 316 315 315 316 319 324 327 328 330 328 339 350 39 26 346 277 182 164
236 249 258 258 260 264 263 266 271 268 271 278 286 292 294 289 286 286 283 285 286 288 289 293 297 310 310 319 325 327 317 320 315 314 314 313 314 315 317 316 318 318 318 316 316 317 316 315 313 313 311 312 312 311 307 305 308 313 323 321 315 315 321 322 322 321 318 311 317 321 323 325 330 335 336 335 334 339 345 25 80 93 98 78 82
238 247 255 259 260 255 261 259 259 270 277 283 280 279 285 291 291 288 287 292 296 298 297 296 303 306 309 314 319 317 314 312 311 311 311 313 314 314 316 318 320 321 319 319 319 319 318 318 316 317 319 320 322 323 321 318 314 309 319 327 325 323 325 324 322 318 317 319 320 322 326 330 333 338 341 344 350 352 356 4 41 96 95 97 114
229 240 253 257 261 260 263 259 257 264 272 274 283 294 292 288 282 283 291 293 296 297 298 301 302 302 303 305 306 307 306 308 306 306 306 311 314 315 316 317 318 316 316 315 316 319 319 320 320 319 320 321 324 325 327 327 326 320 320 330 331 326 322 323 322 325 324 325 325 325 330 335 342 342 352 351 359 13 12 11 14 28 68 94 102
227 236 247 249 254 260 262 265 268 261 254 266 275 282 290 289 283 284 286 290 292 295 297 297 302 304 303 301 301 302 305 309 308 310 309 309 311 312 316 318 317 316 317 316 315 318 320 320 319 318 318 319 319 322 329 333 333 330 327 331 334 340 337 335 332 332 331 329 331 333 337 341 348 346 352 359 8 12 24 26 21 42 41 63 74
228 238 242 248 251 258 261 262 263 267 270 267 269 272 276 281 287 285 287 288 290 289 292 294 290 290 294 294 293 294 298 299 300 299 302 304 308 311 316 316 318 317 316 315 317 319 319 319 317 318 318 320 323 325 328 336 338 335 335 338 342 349 347 347 342 343 341 342 343 344 344 348 354 356 358 4 12 9 26 20 28 36 48 52 61
224 232 242 244 246 248 253 256 258 262 262 266 273 280 278 278 277 278 281 284 288 290 288 293 294 293 291 290 293 295 296 300 301 303 305 305 309 312 315 314 315 316 316 314 315 318 317 318 318 318 317 319 322 324 326 334 340 340 339 342 349 353 356 358 358 355 355 353 351 351 353 358 359 1 3 8 10 13 23 23 32 38 45 50 58
224 230 238 241 246 251 251 251 254 259 259 261 266 274 277 276 278 278 281 287 288 285 282 278 282 286 290 296 300 300 303 303 304 304 305 306 308 310 313 316 317 316 317 314 315 315 316 316 318 318 320 321 324 325 324 328 339 344 343 344 352 358 2 3 359 3 7 360 357 356 358 4 3 6 6 9 11 22 27 29 32 41 49 57 59
230 233 234 237 243 248 249 251 257 253 253 260 259 263 269 272 270 277 283 283 281 282 285 284 285 287 286 282 287 292 296 294 293 296 299 302 306 309 311 314 315 315 313 314 315 315 315 318 318 320 321 322 324 326 325 325 339 348 347 350 359 4 7 11 9 6 8 9 3 2 7 8 14 13 13 13 16 22 34 40 39 42 45 48 52